{"data":{"norad_id":65954,"intl_designator":"2025-228H","name":"KUIPER-00125","alt_names":[],"object_type":"PAYLOAD","status":"ACTIVE","operator":null,"country":"US","launch_date":"2025-10-14","launch_site_code":"AFETR","launch_vehicle":null,"mission":null,"orbit_class":"UNKNOWN","rcs_meters":null,"size_class":null,"mass_kg":null,"dimensions":null,"purposes":[],"wikipedia_slug":null,"has_3d_model":false,"image_url":null,"decayed_at":null,"tle_current":{"epoch":"2026-05-25T00:36:55.923264Z","epoch_age_seconds":69040,"freshness":"FRESH","line1":"1 65954U 25228H   26145.02564726  .00001352  00000+0  20624-3 0  9995","line2":"2 65954  51.9013   3.0474 0000879 107.8426 252.2632 14.79938322 34816","mean_motion":14.79938322,"eccentricity":8.79e-5,"inclination_deg":51.9013,"raan_deg":3.0474,"arg_perigee_deg":107.8426,"mean_anomaly_deg":252.2632,"bstar":0.00020624,"rev_number":3481,"period_min":97.301352265409,"perigee_km":628.90285604277,"apogee_km":630.1348019375,"semimajor_km":7007.6558289901,"source":"CELESTRAK","updated_at":"2026-05-25T13:38:05.846286Z"}}}